{"data":{"norad_id":52606,"intl_designator":"2022-052J","name":"STARLINK-3928","alt_names":[],"object_type":"PAYLOAD","status":"ACTIVE","operator":null,"country":"US","launch_date":"2022-05-14","launch_site_code":"AFETR","launch_vehicle":null,"mission":null,"orbit_class":"UNKNOWN","rcs_meters":null,"size_class":null,"mass_kg":null,"dimensions":null,"purposes":["comms"],"wikipedia_slug":null,"has_3d_model":false,"image_url":null,"decayed_at":null,"tle_current":{"epoch":"2026-05-24T19:52:37.051968Z","epoch_age_seconds":83761,"freshness":"FRESH","line1":"1 52606U 22052J   26144.82820662 -.00000641  00000+0 -22158-4 0  9995","line2":"2 52606  53.2151 297.3217 0001369  90.0173 270.0976 15.08841014222355","mean_motion":15.08841014,"eccentricity":0.0001369,"inclination_deg":53.2151,"raan_deg":297.3217,"arg_perigee_deg":90.0173,"mean_anomaly_deg":270.0976,"bstar":-2.2158e-5,"rev_number":22235,"period_min":95.437490540007,"perigee_km":538.79323217255,"apogee_km":540.68734697444,"semimajor_km":6917.8772895735,"source":"CELESTRAK","updated_at":"2026-05-25T13:38:17.198395Z"}}}